Location: ??????
(55.6500°N, 37.8000°E)
Time: 13:52:53
(UTC+00:00)

Meteor 1-28 Rocket - Pass Details

Date: 14 April 2024
Orbit: 475 x 492 km, 97.5° (Epoch: 18 May)

Event Time Altitude Azimuth Distance (km) Brightness Sun altitude
Exits shadow 00:41:12 24° 238° (WSW) 1,075 4.2 -13.6°
Maximum altitude 00:42:10 27° 265° (W) 988 4.2 -13.5°
Drops below altitude 10° 00:45:22 10° 325° (NW) 1,717 5.9 -13.2°
Sets 00:47:42 0° 338° (NNW) 2,605 7.0 -12.9°
